Winder, GA

1:21 PM EDT on August 25, 2016 (GMT -0400)
Winder-Barrow

Weather History for KWDR - January, 2013

Change the Weather History Date:

Saturday, January 12, 2013

  Actual Average Record
Temperature  
Mean Temperature 68 °F -  
Max Temperature 77 °F 48 °F 77 °F (2013)
Min Temperature 59 °F 28 °F 7 °F (1981)
Cooling Degree Days 3    
Growing Degree Days 18 (Base 50)    
Moisture  
Dew Point 59 °F    
Average Humidity 84    
Maximum Humidity 100    
Minimum Humidity 57    
Precipitation  
Precipitation 0.00 in - - ()
Sea Level Pressure  
Sea Level Pressure 30.17 in    
Wind  
Wind Speed 2 mph (SSW)    
Max Wind Speed 8 mph    
Max Gust Speed -    
Visibility 6 miles    
Events      
Averages and records for this station are not official NWS values.
T = Trace of Precipitation, MM = Missing Value Source: NWS Daily Summary

Daily Weather History Graph

Daily Weather History Graph

Search for Another Location

Airport or City:

Trip Planner

Search our weather history database for the weather conditions in past years. The results will help you decide how hot, cold, wet, or windy it might be!

Date:

Astronomy

Jan. 12, 2013 Rise Set
Actual Time 7:40 AM EST 5:46 PM EST
Civil Twilight 7:13 AM EST 6:13 PM EST
Nautical Twilight 6:42 AM EST 6:44 PM EST
Astronomical Twilight 6:12 AM EST 7:14 PM EST
Moon 8:03 AM EST (1/12) 7:08 PM EST (1/12)
Length of Visible Light 11h 00m
Length of Day
10h 05m
New Moon, 1% of the Moon is Illuminated
Jan 12
New Moon
Jan 18
First Quarter
Jan 26
Full
Feb 3
Last Quarter
Feb 10
New

Hourly Weather History & Observations

Time (EST) Temp. Dew Point Humidity Pressure Visibility Wind Dir Wind Speed Gust Speed Precip Events Conditions
12:15 AM 62.6 °F 60.8 °F 94% 30.20 in 7.0 mi Calm Calm - N/A   Overcast
12:35 AM 62.6 °F 60.8 °F 94% 30.19 in 7.0 mi SSW 3.5 mph - N/A   Overcast
12:55 AM 62.6 °F 60.8 °F 94% 30.19 in 7.0 mi SSW 3.5 mph - N/A   Overcast
1:15 AM 62.6 °F 60.8 °F 94% 30.19 in 7.0 mi Calm Calm - N/A   Scattered Clouds
1:35 AM 60.8 °F 59.0 °F 94% 30.19 in 5.0 mi Calm Calm - N/A   Clear
1:55 AM 60.8 °F 59.0 °F 94% 30.20 in 0.5 mi Calm Calm - N/A   Unknown
2:15 AM 60.8 °F 59.0 °F 94% 30.20 in 0.5 mi Calm Calm - N/A   Unknown
2:35 AM 59.0 °F 57.2 °F 94% 30.20 in 0.2 mi Calm Calm - N/A   Mostly Cloudy
2:55 AM 59.0 °F 57.2 °F 94% 30.20 in 0.5 mi South 4.6 mph - N/A   Mostly Cloudy
3:15 AM 60.8 °F 59.0 °F 94% 30.21 in 5.0 mi SSW 3.5 mph - N/A   Scattered Clouds
3:35 AM 60.8 °F 60.8 °F 100% 30.20 in 7.0 mi SSW 3.5 mph - N/A   Scattered Clouds
3:55 AM 60.8 °F 60.8 °F 100% 30.19 in 7.0 mi SW 3.5 mph - N/A   Mostly Cloudy
4:15 AM 60.8 °F 59.0 °F 94% 30.18 in 5.0 mi SW 3.5 mph - N/A   Mostly Cloudy
4:35 AM 60.8 °F 60.8 °F 100% 30.18 in 7.0 mi Calm Calm - N/A   Overcast
4:55 AM 60.8 °F 60.8 °F 100% 30.18 in 7.0 mi SW 3.5 mph - N/A   Mostly Cloudy
5:15 AM 60.8 °F 60.8 °F 100% 30.18 in 7.0 mi Calm Calm - N/A   Scattered Clouds
5:35 AM 60.8 °F 59.0 °F 94% 30.17 in 0.8 mi Calm Calm - N/A   Unknown
5:55 AM 59.0 °F 59.0 °F 100% 30.17 in 0.8 mi Calm Calm - N/A   Unknown
6:15 AM 59.0 °F 59.0 °F 100% 30.18 in 1.0 mi Calm Calm - N/A   Unknown
6:35 AM 59.0 °F 57.2 °F 94% 30.18 in 0.8 mi Calm Calm - N/A   Mostly Cloudy
6:55 AM 59.0 °F 55.4 °F 88% 30.18 in 0.5 mi Calm Calm - N/A   Mostly Cloudy
7:15 AM 59.0 °F 55.4 °F 88% 30.19 in 0.8 mi Calm Calm - N/A   Overcast
7:35 AM 59.0 °F 55.4 °F 88% 30.20 in 1.2 mi NNW 3.5 mph - N/A   Overcast
7:55 AM 59.0 °F 55.4 °F 88% 30.20 in 0.5 mi Calm Calm - N/A   Overcast
8:15 AM 59.0 °F 55.4 °F 88% 30.20 in 0.2 mi Calm Calm - N/A   Overcast
8:35 AM 59.0 °F 55.4 °F 88% 30.21 in 0.2 mi Calm Calm - N/A   Overcast
8:55 AM 59.0 °F 57.2 °F 94% 30.21 in 0.5 mi Calm Calm - N/A   Overcast
9:15 AM 59.0 °F 59.0 °F 100% 30.22 in 1.0 mi Calm Calm - N/A   Overcast
9:35 AM 60.8 °F 59.0 °F 94% 30.22 in 0.5 mi Calm Calm - N/A   Overcast
9:55 AM 60.8 °F 60.8 °F 100% 30.22 in 0.8 mi Calm Calm - N/A   Overcast
10:15 AM 62.6 °F 60.8 °F 94% 30.22 in 0.2 mi Calm Calm - N/A   Overcast
10:35 AM 62.6 °F 62.6 °F 100% 30.22 in 0.5 mi Calm Calm - N/A   Overcast
10:55 AM 62.6 °F 62.6 °F 100% 30.22 in 2.0 mi Calm Calm - N/A   Overcast
11:15 AM 64.4 °F 62.6 °F 94% 30.21 in 4.0 mi Calm Calm - N/A   Overcast
11:35 AM 64.4 °F 64.4 °F 100% 30.20 in 5.0 mi Calm Calm - N/A   Overcast
11:55 AM 68.0 °F 66.2 °F 94% 30.19 in 7.0 mi Calm Calm - N/A   Mostly Cloudy
12:15 PM 71.6 °F 64.4 °F 78% 30.17 in 10.0 mi Calm Calm - N/A   Scattered Clouds
12:35 PM 73.4 °F 60.8 °F 65% 30.17 in 10.0 mi SSW 4.6 mph - N/A   Clear
12:55 PM 73.4 °F 60.8 °F 65% 30.17 in 10.0 mi SSW 6.9 mph - N/A   Clear
1:15 PM 73.4 °F 60.8 °F 65% 30.16 in 10.0 mi Calm Calm - N/A   Clear
1:35 PM 73.4 °F 60.8 °F 65% 30.16 in 10.0 mi SW 5.8 mph - N/A   Clear
1:55 PM 73.4 °F 59.0 °F 61% 30.15 in 10.0 mi South 4.6 mph - N/A   Clear
2:15 PM 73.4 °F 59.0 °F 61% 30.15 in 10.0 mi South 6.9 mph - N/A   Scattered Clouds
2:35 PM 73.4 °F 60.8 °F 65% 30.15 in 10.0 mi South 6.9 mph - N/A   Clear
2:55 PM 73.4 °F 59.0 °F 61% 30.15 in 10.0 mi South 5.8 mph - N/A   Clear
3:15 PM 73.4 °F 59.0 °F 61% 30.15 in 10.0 mi SSW 6.9 mph - N/A   Clear
3:35 PM 77.0 °F 60.8 °F 57% 30.14 in 10.0 mi SW 8.1 mph - N/A   Clear
3:55 PM 73.4 °F 59.0 °F 61% 30.14 in 10.0 mi SSW 4.6 mph - N/A   Scattered Clouds
4:15 PM 75.2 °F 60.8 °F 61% 30.14 in 10.0 mi South 4.6 mph - N/A   Scattered Clouds
4:35 PM 73.4 °F 59.0 °F 61% 30.14 in 10.0 mi South 3.5 mph - N/A   Scattered Clouds
4:55 PM 71.6 °F 59.0 °F 64% 30.14 in 10.0 mi SSE 3.5 mph - N/A   Clear
5:15 PM 71.6 °F 59.0 °F 64% 30.14 in 10.0 mi South 3.5 mph - N/A   Clear
5:35 PM 71.6 °F 59.0 °F 64% 30.14 in 10.0 mi Calm Calm - N/A   Clear
5:55 PM 69.8 °F 59.0 °F 68% 30.14 in 10.0 mi Calm Calm - N/A   Clear
6:15 PM 68.0 °F 59.0 °F 73% 30.13 in 10.0 mi South 3.5 mph - N/A   Clear
6:35 PM 68.0 °F 59.0 °F 73% 30.13 in 10.0 mi Calm Calm - N/A   Scattered Clouds
6:55 PM 64.4 °F 59.0 °F 83% 30.14 in 10.0 mi Calm Calm - N/A   Mostly Cloudy
7:15 PM 64.4 °F 59.0 °F 83% 30.14 in 10.0 mi Calm Calm - N/A   Mostly Cloudy
7:35 PM 64.4 °F 59.0 °F 83% 30.14 in 10.0 mi Calm Calm - N/A   Mostly Cloudy
7:55 PM 62.6 °F 59.0 °F 88% 30.13 in 10.0 mi SSE 3.5 mph - N/A   Scattered Clouds
8:15 PM 64.4 °F 59.0 °F 83% 30.12 in 10.0 mi Calm Calm - N/A   Clear
8:35 PM 62.6 °F 57.2 °F 82% 30.12 in 10.0 mi Calm Calm - N/A   Clear
8:55 PM 62.6 °F 57.2 °F 82% 30.13 in 10.0 mi Calm Calm - N/A   Clear
9:15 PM 60.8 °F 57.2 °F 88% 30.13 in 10.0 mi Calm Calm - N/A   Clear
9:35 PM 60.8 °F 57.2 °F 88% 30.13 in 10.0 mi South 3.5 mph - N/A   Scattered Clouds
9:55 PM 60.8 °F 57.2 °F 88% 30.12 in 10.0 mi South 3.5 mph - N/A   Mostly Cloudy
10:15 PM 62.6 °F 57.2 °F 82% 30.12 in 10.0 mi South 3.5 mph - N/A   Mostly Cloudy
10:35 PM 64.4 °F 57.2 °F 77% 30.12 in 10.0 mi South 3.5 mph - N/A   Mostly Cloudy
10:55 PM 62.6 °F 57.2 °F 82% 30.12 in 10.0 mi South 4.6 mph - N/A   Clear
11:15 PM 62.6 °F 57.2 °F 82% 30.12 in 10.0 mi South 3.5 mph - N/A   Clear
11:35 PM 62.6 °F 57.2 °F 82% 30.13 in 10.0 mi Calm Calm - N/A   Scattered Clouds
11:55 PM 62.6 °F 57.2 °F 82% 30.13 in 10.0 mi South 3.5 mph - N/A   Scattered Clouds